www.pogodaiklimat.ru

Погода и климат >> Архив погоды >> Казахстан >> Костанай


АРХИВ ПОГОДЫ в Костанае

Время (UTC), дата Ветер
(напр.,м/с)
 
Видим.   Явления Облачность Т
(С)
Тd
(С)
f
(%)
Тe
(С)
Тes
(С)
Комфортность P
(гПа)
Po
(гПа)
Тmin
(С)
Tmax
(С)
R
(мм)
R24
(мм)
S
(см)
21 8.07 В 3 н/о {гроза, ливн. осадки} 6/6 600 м
[Sc]
+22.2 +15.8 67 +26 +26 душно 1004.0 986.6
00 9.07 ЮВ 1 50 км {гроза, ливн. осадки} 6/4 600 м
[Sc Ci fib]
+20.5 +13.9 66 +24 +24 комфорт 1004.4 987.0
03 9.07 ЮЗ 2 50 км ясно +22.8 +15.9 65 +27 +32 душно 1005.3 987.9
06 9.07 З 3 50 км ясно +26.5 +18.2 60 +31 +43 душно 1005.8 988.6 +20.5 0.0
09 9.07 СЗ 3 50 км 6/6 1000 м
[Cu med, cong]
+28.6 +18.9 56 +34 +39 очень
душно
1006.1 989.1
12 9.07 СЗ 2 50 км 4/3 1000 м
[Cu med, cong Ci fib]
+29.8 +16.8 46 +33 +38 душно 1005.8 988.9
15 9.07 С 2 50 км 3/3 1000 м
[Cu med, cong Ci fib]
+28.0 +19.0 58 +33 +34 очень
душно
1006.5 989.5 +29.8
18 9.07 штиль 0 н/о ясно +20.9 +17.2 79 +24 +24 комфорт 1007.7 990.2 +29.8
21 9.07 штиль 0 н/о ясно +18.9 +17.1 89 +20 +20 тепло 1007.5 989.9
00 10.07 штиль 0 20 км 6/0
[Ci]
+18.5 +16.4 88 +19 +19 тепло 1007.6 990.0
03 10.07 В 1 50 км 9/0
[Ci]
+23.7 +18.5 73 +28 +33 душно 1007.7 990.4
06 10.07 ЮВ 1 50 км 9/0
[Ac lent Ci]
+28.9 +17.6 50 +33 +41 очень
душно
1007.6 990.6 +18.5
09 10.07 Ю 3 50 км 9/4 1000 м
[Cu med, cong Ci]
+31.5 +15.0 37 +34 +40 душно 1006.6 989.7
12 10.07 ЮВ 1 50 км 9/8 1000 м
[Cu Sc Ci]
+31.9 +14.9 36 +34 +35 душно 1005.7 988.9
15 10.07 ЮВ 2 50 км 8/5 1000 м
[Cu Sc Ci fib]
+29.8 +17.4 47 +34 +34 очень
душно
1005.5 988.6 +32.7
18 10.07 ЮВ 2 н/о гроза без осадков 9/9 600 м
[Cb calv]
+24.1 +16.8 64 +28 +28 душно 1005.6 988.3 +32.7
21 10.07 С 2 н/о гроза без осадков 9/9 600 м
[Cb calv]
+24.0 +16.7 64 +28 +28 душно 1005.7 988.4
00 11.07 С 2 20 км {гроза} 8/8 600 м
[Sc]
+19.2 +14.4 74 +21 +21 комфорт 1005.7 988.1
03 11.07 С 3 50 км 4/0
[Ac cast]
+21.6 +15.1 67 +25 +28 комфорт 1006.1 988.6
06 11.07 С 2 50 км 3/1 1000 м
[Cu hum Ac lent]
+25.7 +15.7 54 +29 +39 душно 1006.0 988.7 +18.5
09 11.07 С 5 50 км 6/6 1000 м
[Cu med, cong]
+28.3 +15.4 45 +31 +34 душно 1005.3 988.3
12 11.07 С 4 50 км 6/3 1000 м
[Cu med, cong Ac trans]
+27.1 +13.2 42 +29 +31 жарко 1005.1 987.9
15 11.07 С 1 50 км 8/8 600 м
[Cu med, cong]
+26.0 +12.8 44 +28 +28 жарко 1005.2 987.9 +28.3
18 11.07 С 1 н/о 4/4 600 м
[Sc]
+20.2 +11.5 57 +23 +23 комфорт 1005.6 988.0 +28.3
21 11.07 штиль 0 н/о 3/3 600 м
[Cu med, cong]
+16.3 +10.0 66 +16 +16 по сезону 1005.2 987.4
00 12.07 штиль 0 50 км ясно +15.2 +11.7 80 +15 +15 по сезону 1005.1 987.3
03 12.07 С 1 50 км 8/3 1000 м
[Sc Ci]
+19.9 +16.9 83 +24 +27 комфорт 1005.1 987.6
06 12.07 С 1 50 км 9/5 600 м
[Cu med, cong Ac lent]
+24.5 +16.2 60 +28 +31 душно 1004.7 987.5 +15.0
09 12.07 С 1 50 км гроза без осадков 9/9 600 м
[Cb calv]
+25.3 +14.6 52 +28 +30 жарко 1004.1 986.9
12 12.07 ЮВ 3 10 км гроза, ливневой дождь 10/10 600 м
[Cb cap]
+24.5 +20.4 78 +30 +30 очень
душно
1003.9 986.7
15 12.07 С 2 50 км {гроза, ливн. осадки} 8/5 600 м
[Cu Sc Ci]
+23.1 +17.1 69 +28 +28 душно 1003.9 986.6 +27.9
18 12.07 С 2 н/о {гроза, ливн. осадки} 8/5 600 м
[Sc Ac lent Ci fib]
+20.3 +15.1 72 +24 +24 комфорт 1003.6 986.2 +27.9 0.0
21 12.07 штиль 0 н/о 6/4 600 м
[Sc Ac lent]
+17.8 +13.4 75 +18 +18 по сезону 1003.4 985.7
00 13.07 штиль 0 20 км 9/9 600 м
[Sc]
+17.2 +13.1 77 +17 +17 тепло 1003.6 985.9
03 13.07 С 1 20 км 9/9 600 м
[Sc]
+18.2 +14.0 76 +20 +20 тепло 1003.4 985.9
06 13.07 С 2 50 км 6/4 1000 м
[Cu Sc Ac trans]
+23.8 +16.4 63 +27 +34 жарко 1003.2 986.0 +16.5
09 13.07 штиль 0 10 км гроза, ливневой дождь 9/9 600 м
[Cb cap]
+21.8 +18.1 80 +27 +29 душно 1002.7 985.4
12 13.07 штиль 0 10 км гроза, ливневой дождь 9/9 600 м
[Cb cap]
+20.0 +17.2 84 +23 +23 комфорт 1003.2 985.8
15 13.07 С 3 50 км {гроза, ливн. осадки} 8/8 600 м
[Sc diur, vesp]
+22.1 +16.5 71 +26 +26 душно 1003.4 986.1 +26.3
18 13.07 С 1 н/о гроза, ливневой дождь 9/9 600 м
[Cb cap]
+17.3 +16.3 94 +18 +18 по сезону 1003.3 985.6 +26.3 2
21 13.07 С 1 н/о {гроза, ливн. осадки} 9/9 600 м
[Sc diur, vesp]
+17.1 +14.1 83 +18 +18 по сезону 1003.4 985.7
00 14.07 С 1 10 км гроза, ливневой дождь 9/9 600 м
[Cb cap]
+17.3 +16.3 94 +18 +18 тепло 1003.6 985.9
03 14.07 С 2 50 км {гроза, ливн. осадки} 9/0
[Ac trans Ci]
+19.2 +16.4 84 +21 +25 комфорт 1004.0 986.5
06 14.07 С 3 50 км {гроза, ливн. осадки} 8/3 1000 м
[Cu med, cong Ac trans]
+23.9 +18.2 70 +28 +33 душно 1003.8 986.6 +17.1 6
09 14.07 СВ 8 10 км 10/10 600 м
[]
+23.0 +18.6 76 +29 +29 очень
душно
1003.4 986.5
12 14.07 СВ 4 50 км {гроза, ливн. осадки} 6/6 1000 м
[Cu med, cong]
+24.4 +18.2 68 +29 +31 душно 1003.5 986.3
15 14.07 С 2 50 км 9/9 1000 м
[Cu med, cong]
+24.0 +18.0 69 +28 +28 душно 1004.2 987.0 +26.8
18 14.07 С 1 н/о 3/3 600 м
[Sc]
+19.5 +15.1 76 +22 +22 комфорт 1005.2 987.6 +26.8 0.3
21 14.07 С 2 н/о 9/5 600 м
[Sc Ac trans]
+19.2 +15.5 79 +21 +21 комфорт 988.1
00 15.07 С 2 4000 м дымка 3/0
[Ac lent]
+17.8 +15.6 87 +18 +18 тепло 988.7
03 15.07 С 4 20 км ясно +22.2 +18.1 78 +27 +31 душно 1007.3 989.9
06 15.07 СВ 6 50 км 3/1 1000 м
[Cu hum Ci fib]
+25.4 +18.0 64 +30 +35 душно 1008.1 990.8 +17.8
09 15.07 СВ 7 50 км 6/6 1000 м
[Cu med, cong]
+27.7 +16.9 52 +32 +33 очень
душно
1007.9 990.9
12 15.07 С 7 50 км 4/4 1000 м
[Cu med, cong]
+27.1 +15.1 48 +30 +31 душно 1008.7 991.5
15 15.07 С 6 50 км ясно +24.9 +14.3 52 +27 +28 жарко 1009.7 992.4 +27.7
18 15.07 СВ 3 н/о ясно +19.9 +12.4 62 +22 +22 комфорт 1011.1 993.4 +27.7

 

Местоположение метеостанции Костанай (Костанайская область, Казахстан): широта 53.22 долгота 63.62 высота над уровнем моря 156 м.

В архиве по умолчанию представлена погода в Костанае за последнюю неделю. Архивные данные за месяц целиком и за предыдущие месяцы, начиная с января 2011 года, Вы можете получить, выбрав интересующий диапазон дат из раскрывающегося списка и нажав кнопку "Ввод!".


*Определитесь, кто Вы:
робот инопланетянин человек

Внимание! Время в таблицах - всемирное. Для получения местного времени необходимо прибавить поправку, которая в Костанае равна 6 ч.

Смотрите также архив погоды в соседних городах и на ближайших метеорологических станциях:

Погода в Костанае 2 (Костанайская область, Казахстан) (3 км)
Погода в Рудном (Костанайская область, Казахстан) (43 км)
Погода в Тоболе (Костанайская область, Казахстан) (91 км)
Погода в Кусмурыне (Костанайская область, Казахстан) (109 км)
Погода в Карабалыке (Костанайская область, Казахстан) (118 км)
Погода в Сарыколе (Костанайская область, Казахстан) (129 км)
Погода в Михайловке (Костанайская область, Казахстан) (136 км)
Погода в Диевской (Костанайская область, Казахстан) (136 км)
Погода в Карасу (Костанайская область, Казахстан) (140 км)
Погода в Целинном (Курганская область, Россия) (142 км)

Пояснения к столбцам:

Ветер - указаны скорость ветра в м/с - средняя за 10 мин, порывы в срок и между сроками (в фигурных скобках) и направление, откуда дует ветер: С - северный, СВ - северо-восточный, В - восточный, ЮВ - юго-восточный, Ю - южный, ЮЗ - юго-западный, З - западный, СЗ - северо-западный.
Видимость - горизонтальная дальность видимости в метрах или километрах. При видимости от 1 до 10 км при отсутствии осадков обычно наблюдается дымка, при ухудшении видимости до 1 км и менее - туман. В сухую погоду видимость может ухудшаться дымом, пылью или мглою.
Явления - указаны атмосферные явления, наблюдавшиеся в срок или в последний час перед сроком; фигурными скобками обозначены явления, наблюдавшиеся между сроками (за 1-3 часа до срока); квадратными скобками обозначены град или гололедные отложения с указанием их диаметра в мм.
Облачность - указаны через наклонную черту общая и нижняя облачность в баллах и высота нижней границы облаков в метрах; квадратными скобками обозначены формы облаков: Ci - перистые, Cs - перисто-слоистые, Cc - перисто-кучевые, Ac - высококучевые, As - высокослоистые, Sc - слоисто-кучевые, Ns - слоисто-дождевые, Cu - кучевые, Cb - кучево-дождевые. Подробнее классификацию облаков см. в Атласе облаков (PDF).
T - Температура воздуха - температура, измеренная на высоте 2 м над землей.
Td - Температура точки росы - температура, при понижении до которой содержащийся в воздухе водяной пар достигнет насыщения.
f - Относительная влажность воздуха - влажноcть воздуха, измеренная на высоте 2 м над землей.
Te - Эффективная температура - температура, которую ощущает одетый по сезону человек в тени. Характеристика душности погоды. При расчете учитывается влияние влажности воздуха и скорости ветра на теплоощущения человека.
Tes - Эффективная температура на солнце - температура, которую ощущает человек, с поправкой на солнечный нагрев. Характеристика знойности погоды. Зависит от высоты солнца над горизонтом, облачности и скорости ветра. Ночью, в пасмурную погоду, а также при ветре 12 м/с и более поправка равна нулю.
P - Атмосферное давление - приведенное к уровню моря атмосферное давление.
Po - Атмосферное давление - измеренное на уровне метеостанции атмосферное давление.
Tmin - Минимальная температура - минимум температуры воздуха на высоте 2 м над землей.
Tmax - Максимальная температура - максимум температуры воздуха на высоте 2 м над землей.
R - Количество осадков - Количество выпавших осадков за период времени, мм. При наведении курсора мыши на число - период времени, за который выпало указанное количество осадков.
R24 - Количество осадков - Количество выпавших осадков за 24 часа, мм.
S - Снежный покров - Высота снежного покрова, см. При наведении курсора мыши на число - состояние снежного покрова и степень покрытия местности в баллах.